Temperature
8 9 9 10 10 10 11 11 11 11 11 10 11 11 12 11 11 11 11 11 10 10 10 9 9 9 9 10 10 10 10 9 9 9 9 8 9 9 9 9 9 9 9 9
9 8 9 9 9 9 9 9 10 10 10 10 10 11 11 11 11 10 10 10 10 10 9 8 9 9 9 9 9 9 9 9 9 9 8 8 8 8 8 8 8 8 8 8
9 8 8 8 8 8 8 9 9 9 9 9 9 11 11 11 10 9 9 9 9 9 9 8 8 8 9 9 9 9 9 9 9 8 8 8 8 8 8 8 8 8 8 8
8 7 7 7 8 8 8 8 8 8 8 9 9 10 11 11 11 10 9 9 9 8 8 8 8 8 8 8 8 9 9 9 8 8 8 8 8 8 8 8 8 8 8 8
7 7 7 7 8 8 8 7 7 7 8 8 8 9 11 11 11 11 10 9 8 8 7 7 8 8 8 8 8 8 8 8 8 8 8 8 7 7 8 8 8 7 7 7
7 6 7 7 7 7 6 7 7 7 7 7 9 9 11 11 10 10 10 9 8 7 7 7 7 7 7 7 8 8 8 8 8 8 7 7 7 7 7 7 7 7 7 7
6 6 6 6 6 6 6 7 8 8 8 9 8 8 10 11 10 9 9 8 8 7 7 6 6 6 7 7 7 7 7 7 7 7 7 7 7 7 7 7 7 7 7 7
6 7 6 6 6 6 6 7 7 8 9 9 7 8 10 10 9 8 8 7 7 7 6 6 6 6 6 6 6 7 7 7 7 7 7 7 7 7 7 7 7 7 7 7
7 6 5 5 6 6 6 6 7 7 6 7 9 9 9 9 9 8 7 7 7 6 6 5 5 6 6 6 6 6 6 7 7 7 7 7 7 6 6 6 6 6 6 6
6 5 5 5 5 5 6 6 6 6 7 8 9 9 10 9 9 8 8 7 7 6 5 5 5 5 6 6 6 6 6 6 6 6 6 6 6 6 6 6 6 6 6 6
5 5 5 5 5 6 5 5 5 6 6 7 8 10 9 8 8 7 7 7 6 5 5 5 5 5 5 5 6 6 6 6 6 6 6 6 6 6 5 5 5 5 5 5
4 5 5 5 5 5 5 5 5 6 6 6 7 9 8 7 7 7 7 6 5 5 5 5 5 5 5 5 5 5 5 5 5 5 5 5 5 5 5 5 5 5 5 5
3 3 4 5 5 4 4 4 4 4 5 6 7 8 7 7 7 6 6 6 5 5 4 4 4 5 5 5 5 5 5 5 5 5 5 5 5 5 5 5 5 5 5 5
3 3 4 5 6 4 3 3 4 4 5 5 6 7 7 7 7 6 6 5 5 4 4 4 4 4 4 4 4 4 4 4 4 4 4 4 4 4 4 4 4 4 4 4
3 3 2 3 3 3 3 3 3 3 5 5 6 6 7 7 6 6 5 5 4 4 4 4 4 4 4 4 4 4 4 4 4 4 4 4 4 4 4 4 4 4 4 4
2 2 2 2 2 2 2 3 3 3 4 4 5 5 7 6 5 5 4 4 4 4 4 3 4 4 4 4 3 3 3 3 4 4 4 4 4 4 4 4 4 4 3 3
1 1 2 3 2 2 3 3 3 3 4 4 4 6 6 5 5 5 4 4 3 3 3 3 3 3 3 3 3 3 3 3 3 3 3 3 3 3 3 3 3 3 3 3
1 1 1 2 2 2 6 4 4 3 4 4 4 4 4 4 4 3 3 3 3 3 3 3 3 3 3 3 3 3 3 3 3 3 3 3 3 3 3 3 3 2 2 2
1 1 1 2 2 4 5 3 3 2 3 3 3 3 3 3 3 4 3 3 3 3 3 3 3 3 3 2 2 2 2 2 2 2 2 2 2 2 2 2 2 2 2 2
-0 0 1 1 2 3 5 3 2 3 3 3 2 2 2 2 4 5 3 2 2 2 2 2 2 2 2 2 2 2 2 2 2 2 2 2 2 1 1 1 1 1 1 1
-0 0 1 1 2 4 4 2 2 3 4 3 2 2 2 2 3 2 2 2 2 2 2 2 2 2 2 2 2 1 1 1 1 1 1 1 1 1 1 1 1 1 1 1
1 1 1 1 1 3 2 1 2 3 2 2 2 1 1 1 1 1 1 1 1 1 2 2 2 2 2 2 1 1 1 1 1 1 1 1 1 1 1 1 0 0 0 0
1 2 2 2 3 3 1 1 1 1 1 1 1 1 1 0 0 1 1 1 1 1 1 1 1 1 1 1 1 1 1 1 0 0 0 0 0 0 0 0 -0 -0 -0 -1
0 -0 0 0 2 2 1 1 1 1 0 1 0 0 0 0 0 0 0 0 0 0 0 1 1 1 1 1 0 0 0 0 0 0 0 -0 -0 -0 -0 -1 -1 -1 -1 -1
1 -1 -1 -0 1 0 0 0 0 0 0 0 0 -0 -0 -0 -0 -0 -0 -0 -0 -0 -0 0 0 0 0 -0 -0 -0 -0 -0 -0 -0 -0 -0 -0 -1 -1 -1 -1 -1 -1 -1
-1 -1 -0 1 1 1 1 1 0 0 -0 -0 -0 -1 -1 -1 -1 -1 -1 -1 -1 -1 -0 -0 -0 -0 -0 -0 -1 -1 -1 -0 -0 -0 -1 -1 -1 -1 -1 -1 -1 -2 -2 -2
Wind_Speed
3 5 9 10 11 10 9 10 13 12 7 9 14 17 16 12 12 14 13 12 12 12 10 9 9 9 9 9 9 10 10 10 8 7 7 6 5 5 4 4 5 5 5 5
4 9 9 7 7 9 10 12 13 10 6 8 13 18 15 14 14 13 13 13 12 11 9 9 9 9 10 10 10 10 10 10 10 8 7 5 5 4 4 4 4 5 5 5
7 3 3 6 8 9 11 13 12 10 8 8 10 14 13 9 10 10 11 11 10 10 9 9 9 9 9 10 11 10 10 10 10 9 7 5 4 3 3 4 4 5 5 6
5 4 4 6 7 8 10 8 9 9 8 6 6 9 10 8 8 9 9 9 9 8 8 8 8 9 9 9 9 10 10 10 10 10 9 10 7 6 6 5 5 5 6 6
4 3 5 7 7 7 5 4 6 7 8 8 8 8 9 7 9 8 7 7 7 6 6 6 6 8 8 8 8 8 9 9 9 10 10 10 8 6 5 5 6 6 5 6
4 2 4 4 2 3 2 2 4 4 5 8 9 9 9 6 7 6 5 5 4 4 4 4 4 4 5 6 7 7 9 9 9 10 10 10 9 8 7 7 6 5 4 5
3 3 2 1 1 2 3 3 2 4 5 6 3 7 8 5 5 5 5 5 4 4 3 3 3 4 4 6 6 7 8 8 9 10 10 10 9 9 9 8 7 6 5 5
3 4 2 2 3 4 5 5 5 4 5 4 4 7 5 4 4 4 4 4 3 3 3 3 4 4 4 5 6 7 8 8 9 9 9 9 8 7 6 7 7 7 5 5
4 3 1 2 3 3 4 5 4 3 4 6 6 6 6 4 3 3 2 2 2 2 2 2 3 3 4 5 6 7 8 8 8 8 8 8 8 7 7 6 6 5 5 5
3 3 3 2 2 2 4 3 3 4 4 6 6 7 5 4 3 2 2 2 2 2 1 1 2 3 3 4 5 5 6 7 7 8 8 6 7 7 7 6 6 6 5 5
3 3 3 2 4 5 4 4 4 4 4 5 6 4 1 3 3 3 2 2 2 2 2 2 2 2 3 3 4 5 5 6 6 6 7 7 7 7 7 6 6 6 5 5
3 3 4 5 3 4 5 6 6 5 5 5 6 5 1 1 3 3 3 3 2 2 2 2 2 2 3 3 4 5 5 5 5 5 6 6 6 6 6 6 6 6 6 5
3 3 3 3 3 3 4 5 6 5 5 7 8 6 0 3 4 4 5 4 3 3 2 2 2 2 3 3 3 4 4 4 4 5 6 6 6 6 6 6 6 6 6 5
3 4 7 8 5 3 6 7 8 7 7 9 12 12 10 8 8 7 7 6 5 4 4 3 3 2 2 3 3 4 4 4 4 5 6 6 6 6 6 5 5 5 5 5
2 5 7 9 9 7 9 10 11 12 12 11 12 13 13 11 9 9 8 7 6 5 5 4 4 3 3 3 3 3 4 4 4 5 6 6 5 5 5 5 5 4 5 5
2 4 4 7 8 8 11 13 14 15 15 16 15 17 14 10 8 8 8 7 7 7 6 5 4 4 4 4 4 4 4 4 5 5 5 5 5 5 5 5 4 4 4 4
3 3 3 6 5 6 11 12 13 11 12 13 15 14 9 9 9 9 8 8 8 8 7 6 5 5 4 4 4 5 4 4 5 5 5 5 5 5 5 5 5 5 5 5
6 5 3 4 3 8 6 2 8 12 13 13 12 11 9 10 10 9 8 8 8 7 7 6 5 5 5 4 4 4 4 5 5 5 5 5 5 5 5 5 5 5 5 5
9 7 4 4 6 10 8 4 4 7 10 9 11 11 9 7 7 7 6 6 7 7 6 6 5 5 4 4 4 4 5 5 5 6 6 5 6 6 6 6 6 5 5 5
5 6 5 5 6 8 5 2 2 4 8 3 6 8 7 5 6 5 4 4 5 5 5 4 4 4 4 4 4 5 5 5 6 6 6 6 6 6 7 7 6 5 5 5
4 5 8 9 8 9 4 1 3 5 4 2 5 7 6 6 7 6 5 6 5 5 5 4 4 4 4 4 4 5 5 6 6 5 5 5 6 6 7 6 5 5 5 5
7 6 7 7 8 8 2 3 5 6 6 6 6 6 7 7 6 5 5 5 5 5 4 4 3 3 3 4 5 6 6 5 4 5 5 5 5 5 5 6 5 5 6 5
8 7 5 8 8 5 4 6 7 7 8 7 7 7 6 6 6 6 6 5 5 5 4 3 3 3 3 4 5 6 5 4 4 5 5 5 5 5 5 6 6 5 5 5
6 5 6 8 10 9 9 9 8 8 9 9 8 8 7 7 8 7 6 6 5 5 5 4 3 3 4 4 5 6 5 5 5 5 5 5 5 5 5 5 5 5 5 5
6 5 6 9 10 9 8 9 9 9 8 8 8 7 8 7 8 7 7 6 5 5 5 4 3 4 4 4 4 5 5 5 5 5 5 5 5 5 5 5 5 6 5 6
6 7 7 8 7 7 8 7 8 8 8 8 7 7 7 7 7 7 6 6 5 5 5 4 4 4 4 4 4 4 4 5 6 5 5 4 4 4 4 4 3 4 5 5
Wind_Direction
198 218 227 228 229 246 253 253 258 261 263 252 256 264 266 260 253 253 253 250 247 245 243 235 227 219 213 209 205 200 197 192 185 182 184 185 187 184 186 187 188 188 185 183
211 236 246 248 240 243 248 253 261 270 265 258 266 268 266 258 251 250 253 252 250 250 244 235 224 215 210 207 205 200 196 194 190 189 188 192 186 190 188 184 188 188 187 184
224 247 243 228 231 237 248 249 258 268 282 263 272 269 256 254 249 249 249 253 252 247 242 236 224 218 211 206 203 199 195 192 191 187 181 172 169 167 177 186 189 190 190 190
246 253 230 226 234 238 255 258 258 259 259 259 251 273 262 257 251 247 245 244 245 245 243 237 226 218 212 206 199 195 193 190 189 187 185 184 191 195 199 193 190 186 191 197
246 242 231 236 244 238 253 270 257 253 252 263 248 255 263 247 250 248 240 241 244 245 241 234 229 225 219 205 195 192 189 188 188 190 192 194 199 199 190 186 186 188 190 198
265 265 255 247 267 229 217 271 267 244 238 249 239 238 261 243 244 248 244 243 244 244 236 232 226 221 214 200 192 188 186 188 189 191 194 199 199 193 186 189 191 192 192 196
271 254 255 213 194 176 215 237 253 230 224 242 226 241 254 259 251 250 254 253 254 246 234 224 215 210 203 195 191 190 188 189 190 193 197 200 200 196 195 194 197 196 195 199
253 261 220 229 246 229 223 228 244 258 257 272 243 243 255 276 268 259 256 252 252 252 242 227 216 207 202 195 192 192 192 192 192 196 198 199 198 199 199 196 195 197 199 202
237 256 306 273 275 227 203 221 255 265 276 267 247 255 270 255 250 238 241 245 255 270 263 242 226 211 204 196 195 196 195 194 195 197 197 196 194 199 199 197 197 198 198 196
240 258 273 286 236 247 251 207 198 218 249 259 257 260 254 241 254 267 259 247 266 287 288 264 239 224 216 205 198 199 198 197 194 195 197 197 195 198 197 194 195 195 194 191
243 232 249 237 228 236 205 205 221 228 253 263 270 262 287 261 272 277 269 269 271 283 286 275 263 239 217 202 197 194 195 196 192 192 194 194 193 193 194 195 197 196 192 189
219 229 252 259 273 283 245 228 214 233 238 247 266 270 50 307 299 285 292 294 276 278 282 285 276 240 202 193 192 190 190 191 193 192 191 191 191 189 192 196 195 192 191 189
189 199 239 259 229 208 233 235 232 243 249 243 251 262 51 332 320 303 301 294 285 286 290 296 282 248 207 194 191 191 189 189 190 187 187 187 188 189 194 195 192 189 188 186
214 214 234 251 272 239 240 240 231 226 237 247 250 266 276 291 300 302 300 292 285 284 284 292 283 264 232 213 201 196 197 192 189 187 187 189 191 192 194 192 192 189 189 188
227 239 247 266 274 266 258 251 239 234 243 249 263 267 274 284 291 292 289 285 282 282 283 281 275 266 244 226 213 207 204 199 191 190 192 194 192 189 188 187 188 187 189 193
239 244 248 263 266 264 263 258 250 250 250 252 264 271 277 279 277 278 278 273 270 275 277 274 270 264 249 235 224 217 210 203 194 194 199 195 188 183 185 186 183 184 189 191
218 215 239 264 279 275 259 246 237 243 242 241 250 263 278 278 274 276 274 268 268 269 268 267 261 254 247 240 228 222 215 202 199 198 198 194 188 186 187 184 182 188 192 190
212 221 240 264 256 249 264 246 235 245 251 242 255 271 275 279 283 279 270 269 270 267 266 267 261 252 247 239 229 222 212 204 205 203 200 197 192 192 190 188 191 196 195 195
217 210 222 232 254 271 275 252 234 242 264 244 253 267 279 292 287 271 266 262 264 268 265 264 260 249 242 235 222 212 208 206 207 207 204 201 198 197 196 198 201 200 198 199
201 208 219 227 248 258 276 299 252 240 265 257 251 264 277 291 278 287 320 306 294 287 277 270 263 246 233 230 216 212 214 214 216 215 211 207 204 202 203 204 204 203 202 203
193 204 219 233 249 265 272 261 192 229 274 316 258 258 253 254 272 301 311 308 306 304 294 276 255 242 231 223 212 216 219 226 226 219 213 208 208 208 206 204 203 199 201 201
208 209 215 218 235 253 200 179 222 275 310 293 282 267 255 266 284 293 299 304 310 310 303 283 257 242 233 221 213 220 227 228 223 215 211 207 206 207 205 201 199 197 195 197
221 222 226 220 238 286 228 248 274 291 288 288 287 282 267 267 274 286 292 296 303 306 308 296 260 250 241 226 220 226 233 226 218 212 211 208 203 203 203 201 197 196 196 200
241 238 238 251 258 268 267 268 277 281 283 289 287 283 271 264 270 279 284 290 295 297 302 295 266 250 251 239 230 232 233 222 211 211 212 208 200 201 201 201 200 199 200 203
251 219 238 256 271 284 269 260 272 279 283 289 290 281 269 264 268 271 275 279 284 291 294 285 269 259 257 249 243 235 226 212 208 209 208 205 203 200 200 203 207 209 213 213
228 221 230 256 268 267 281 285 279 279 282 284 287 287 280 268 266 269 270 273 276 280 285 278 269 263 258 245 244 236 220 208 203 204 205 202 198 196 198 199 207 216 222 223
Height
1486 1485 1481 1480 1482 1480 1479 1479 1476 1476 1479 1481 1476 1471 1470 1472 1473 1472 1471 1470 1470 1471 1472 1473 1474 1475 1476 1478 1480 1482 1484 1487 1489 1491 1493 1495 1497 1499 1500 1501 1503 1504 1506 1507
1484 1482 1481 1482 1483 1483 1482 1479 1476 1476 1479 1478 1473 1468 1465 1466 1466 1466 1466 1466 1466 1467 1468 1468 1469 1470 1471 1473 1476 1478 1480 1482 1485 1487 1490 1492 1494 1495 1497 1498 1500 1501 1503 1504
1478 1480 1482 1482 1481 1482 1480 1478 1475 1476 1477 1477 1475 1462 1458 1459 1461 1462 1462 1462 1462 1462 1462 1463 1464 1465 1467 1468 1470 1473 1475 1478 1481 1484 1486 1488 1490 1492 1493 1495 1496 1498 1500 1501
1480 1480 1481 1480 1480 1479 1477 1477 1478 1478 1476 1470 1472 1460 1451 1454 1455 1456 1457 1457 1457 1458 1459 1459 1460 1461 1462 1464 1467 1469 1471 1474 1477 1480 1482 1484 1486 1488 1489 1491 1493 1495 1496 1498
1478 1479 1478 1477 1477 1478 1476 1479 1478 1476 1474 1472 1468 1466 1447 1450 1449 1450 1452 1453 1454 1455 1455 1455 1456 1457 1459 1461 1463 1465 1468 1470 1473 1476 1478 1480 1483 1485 1487 1488 1490 1492 1493 1495
1478 1479 1478 1476 1477 1478 1479 1479 1477 1474 1472 1469 1459 1459 1444 1443 1444 1446 1449 1450 1451 1452 1452 1452 1453 1454 1455 1457 1459 1461 1464 1466 1469 1472 1474 1476 1479 1481 1483 1485 1486 1488 1489 1491
1475 1476 1477 1477 1477 1478 1478 1476 1470 1466 1463 1454 1458 1457 1445 1441 1444 1446 1447 1448 1448 1449 1449 1450 1450 1451 1451 1453 1455 1457 1460 1462 1465 1468 1470 1472 1475 1477 1479 1481 1483 1484 1486 1487
1472 1471 1474 1475 1474 1474 1474 1473 1470 1463 1453 1449 1458 1451 1441 1443 1444 1446 1446 1446 1446 1447 1447 1447 1447 1448 1449 1450 1452 1454 1456 1459 1461 1464 1466 1469 1471 1473 1475 1477 1479 1480 1482 1483
1470 1470 1475 1475 1475 1474 1473 1471 1471 1470 1466 1459 1446 1444 1443 1442 1443 1444 1444 1445 1445 1445 1445 1445 1445 1446 1447 1448 1449 1451 1453 1455 1458 1460 1463 1465 1467 1469 1471 1473 1475 1477 1478 1480
1472 1474 1473 1474 1475 1474 1473 1470 1471 1468 1461 1448 1441 1440 1436 1439 1440 1441 1442 1443 1444 1444 1443 1443 1443 1444 1445 1446 1447 1449 1451 1453 1455 1457 1459 1461 1463 1466 1468 1470 1471 1473 1474 1476
1474 1474 1473 1473 1471 1468 1472 1472 1468 1465 1462 1453 1443 1436 1437 1439 1440 1441 1442 1442 1442 1442 1442 1441 1441 1442 1442 1444 1445 1446 1448 1450 1452 1454 1456 1458 1460 1462 1464 1466 1467 1469 1470 1472
1474 1472 1469 1469 1470 1471 1469 1466 1466 1463 1462 1459 1449 1441 1440 1441 1441 1442 1441 1441 1441 1441 1441 1440 1440 1440 1440 1441 1442 1444 1445 1447 1448 1450 1452 1454 1457 1459 1460 1462 1464 1465 1467 1468
1474 1473 1469 1464 1469 1471 1469 1467 1467 1466 1462 1456 1450 1440 1440 1441 1440 1440 1440 1440 1440 1440 1439 1439 1438 1438 1438 1439 1440 1441 1442 1444 1446 1447 1449 1451 1453 1455 1457 1459 1460 1462 1463 1464
1471 1471 1467 1458 1454 1461 1465 1465 1465 1464 1458 1452 1446 1438 1437 1439 1439 1439 1439 1439 1438 1438 1437 1437 1436 1436 1437 1437 1438 1438 1440 1441 1443 1445 1446 1448 1450 1452 1454 1455 1457 1458 1460 1461
1470 1467 1467 1464 1463 1462 1461 1461 1460 1460 1454 1450 1441 1440 1436 1437 1439 1439 1438 1437 1436 1436 1435 1435 1434 1434 1434 1435 1435 1436 1437 1439 1440 1442 1443 1445 1447 1449 1451 1452 1453 1455 1456 1458
1469 1467 1467 1464 1462 1461 1460 1456 1455 1453 1450 1447 1444 1439 1435 1436 1437 1437 1436 1435 1434 1433 1433 1433 1432 1432 1432 1432 1433 1433 1434 1435 1437 1438 1440 1442 1444 1445 1447 1449 1450 1451 1453 1454
1468 1468 1464 1456 1460 1460 1450 1445 1447 1445 1442 1442 1439 1433 1433 1434 1433 1433 1432 1432 1431 1431 1430 1430 1430 1430 1430 1430 1430 1431 1431 1432 1434 1435 1437 1438 1440 1441 1443 1445 1446 1447 1449 1450
1466 1466 1464 1458 1460 1453 1434 1438 1438 1438 1436 1436 1434 1432 1432 1432 1431 1430 1430 1429 1428 1428 1427 1427 1427 1427 1427 1428 1428 1428 1429 1429 1430 1432 1433 1435 1436 1438 1440 1441 1443 1444 1445 1446
1461 1462 1461 1458 1450 1438 1434 1436 1437 1437 1432 1431 1431 1430 1431 1430 1428 1426 1426 1425 1425 1424 1424 1424 1424 1424 1424 1425 1425 1425 1425 1426 1427 1428 1430 1431 1433 1434 1436 1437 1439 1440 1441 1442
1459 1460 1459 1455 1448 1439 1429 1434 1435 1436 1429 1427 1428 1428 1429 1429 1426 1423 1423 1422 1422 1421 1421 1421 1421 1421 1421 1421 1422 1422 1422 1423 1424 1425 1426 1428 1429 1431 1432 1433 1435 1436 1437 1438
1456 1456 1454 1450 1445 1432 1431 1433 1434 1432 1424 1425 1425 1425 1426 1426 1425 1423 1421 1420 1419 1419 1418 1418 1418 1417 1418 1418 1419 1419 1419 1420 1421 1422 1423 1424 1426 1427 1428 1430 1431 1432 1433 1435
1446 1446 1447 1446 1443 1433 1430 1432 1430 1425 1424 1423 1422 1422 1422 1422 1421 1420 1419 1418 1417 1416 1415 1415 1414 1414 1415 1415 1415 1415 1416 1416 1418 1418 1419 1420 1422 1423 1424 1425 1426 1428 1429 1430
1441 1438 1436 1435 1430 1427 1427 1426 1425 1425 1423 1422 1421 1420 1419 1418 1418 1417 1416 1415 1414 1414 1413 1412 1412 1411 1411 1412 1412 1412 1412 1413 1414 1415 1415 1417 1418 1419 1420 1421 1422 1423 1425 1426
1437 1437 1436 1432 1426 1425 1424 1423 1422 1421 1420 1418 1417 1416 1416 1415 1414 1413 1413 1412 1411 1411 1410 1409 1409 1408 1408 1408 1408 1409 1409 1409 1410 1411 1412 1413 1414 1415 1416 1417 1418 1419 1420 1422
1431 1433 1431 1427 1423 1422 1419 1419 1418 1417 1416 1415 1414 1413 1412 1411 1410 1410 1409 1409 1408 1407 1407 1406 1405 1405 1404 1404 1404 1405 1405 1405 1406 1407 1408 1409 1410 1411 1412 1413 1415 1416 1417 1418
1427 1427 1425 1420 1419 1418 1416 1415 1414 1413 1412 1411 1410 1408 1408 1408 1407 1406 1406 1405 1405 1404 1403 1403 1402 1402 1401 1401 1401 1401 1401 1402 1402 1403 1404 1405 1406 1408 1409 1410 1411 1412 1414 1415